User: anonymous   Login
Location: Balaclava NSW 2575, Australia
(34.4510°S, 150.4953°E)
Time: 20:29:37
(UTC+10:00)
Language:

SR - Orbit

View from above orbital plane
View from above orbital plane
View from above satellite
View from above satellite

Ground track
Ground track

The orbit data is extracted from the following two-line orbital elements,

1 00046U 60007B   21163.67758096 -.00000014  00000-0  20325-4 0  9996
2 00046  66.6886 153.0948 0215463 224.1500 134.2238 14.49406824191317
Epoch (UTC): 12 June 2021 16:15:42
Eccentricity: 0.0215463
inclination: 66.6886°
perigee height: 574 km
apogee height: 880 km
right ascension of ascending node: 153.0948°
argument of perigee: 224.1500°
revolutions per day: 14.49406824
mean anomaly at epoch: 134.2238°
orbit number at epoch: 19131

The dashed part of the orbit path shows where the satellite is in the earth's shadow,  

DLR